Regional Weather Roundup
Issued by NWS

Home | Current Version | Previous Version | Graphics & Text | Print | Product List | Glossary On
Versions: 1 2 3 4 5 6 7 8 9 10 11 12 13 14 15 16 17 18 19 20 21 22 23 24 25 26 27 28 29 30 31 32 33 34 35 36 37 38 39 40 41 42 43 44 45 46 47 48 49 50
000
ASUS43 KTOP 310808
RWRKS

WEATHER ROUNDUP FOR KANSAS
NATIONAL WEATHER SERVICE GOODLAND KS
300 AM CDT FRI OCT 31 2014

NOTE:  "FAIR" INDICATES FEW OR NO CLOUDS BELOW 12,000 FEET WITH NO
SIGNIFICANT WEATHER AND/OR OBSTRUCTIONS TO VISIBILITY.

KSZ001>006-013>018-027>032-041>047-310900-
NORTHWEST KANSAS

CITY           SKY/WX    TMP DP  RH WIND       PRES   REMARKS
GOODLAND       CLEAR     30  26  85 NE6       30.46S
HAYS           CLEAR     39  28  65 N12       30.43R WCI  32
HILL CITY      CLEAR     37  31  78 N12       30.46R WCI  29
RUSSELL        CLEAR     37  33  85 N12       30.41R WCI  29
$$

KSZ061>065-074>080-084>089-310900-
SOUTHWEST KANSAS

CITY           SKY/WX    TMP DP  RH WIND       PRES   REMARKS
DODGE CITY     CLEAR     40  32  73 N12       30.41R WCI  33
ELKHART          N/A     42  26  53 N6          N/A
GARDEN CITY    CLEAR     36  30  79 N8        30.42R
GREAT BEND     CLEAR     39  30  70 N17       30.42R WCI  30
LIBERAL        CLEAR     46  30  53 NE7       30.42R
PRATT          CLEAR     41  34  75 N13       30.39R
$$

KSZ066>073-081>083-090>101-310900-
SOUTHEAST KANSAS

CITY           SKY/WX    TMP DP  RH WIND       PRES   REMARKS
CHANUTE        CLEAR     48  40  73 N13       30.26R
COFFEYVILLE    CLEAR     50  40  68 N17       30.24R
HUTCHINSON     MOCLDY    44  36  73 N14G23    30.37R
MEDICINE LODGE   N/A     47  36  65 N20G29    30.35R
NEWTON         CLOUDY    43  34  70 N15G21    30.36R
PARSONS        CLEAR     49  41  74 N14       30.26R
WICHITA INTL   PTCLDY    46  37  71 N17G29    30.34R
WICHITA JABRA  CLEAR     43  37  79 N17       30.34R
WICHITA MCCONL CLEAR     44  38  78 N18G25    30.34R
WINFIELD       CLEAR     48  38  68 N26G33    30.31R
$$

KSZ007>012-019>026-033>040-048>060-102>105-310900-
NORTHEAST KANSAS

CITY           SKY/WX    TMP DP  RH WIND       PRES   REMARKS
CONCORDIA      CLEAR     40  34  79 N16G22    30.41R WCI  31
EMPORIA        PTCLDY    44  39  82 N15G26    30.31R
LAWRENCE       CLOUDY    49  39  68 N21G30    30.30R
MANHATTAN      CLOUDY    47  37  68 N16G24    30.37R
MARYSVILLE     CLOUDY    41  32  70 N15       30.39R
OLATHE IND     MOCLDY    48  40  73 N22G30    30.27R
OLATHE EXE     CLOUDY    50  40  68 N21G26    30.25R
SALINA         CLOUDY    46  36  68 N17       30.40R
TOPEKA BILLARD CLOUDY    49  40  71 N20G26    30.33R
TOPEKA FORBES  CLOUDY    49  38  65 N21G38    30.30R
$$



USA.gov is the U.S. government's official web portal to all federal, state and local government web resources and services.